Location: *
(46.3500°N, 10.9000°E)
Time: 17:31:29
(UTC+00:00)

FALCON 9 DEB - Pass Details

Date: 09 April 2020
Orbit: 429 x 441 km, 53.0° (Epoch: 23 May)

Event Time Altitude Azimuth Distance (km) Brightness Sun altitude
Rises 19:26:39 0° 245° (WSW) 2,424 7.4 -15.3°
Reaches altitude 10° 19:28:47 10° 247° (WSW) 1,556 6.4 -15.6°
Maximum altitude 19:32:16 70° 333° (NNW) 472 3.4 -16.1°
Enters shadow 19:35:01 16° 55° (NE) 1,261 5.2 -16.6°
